Location: Banios
(43.0451°N, 0.2335°E)
Time: 08:36:51
(UTC+00:00)

A-11 Canister half - Pass Details

Date: 19 May 2021
Orbit: 1527 x 1681 km, 47.3° (Epoch: 22 June)

Event Time Altitude Azimuth Distance (km) Brightness Sun altitude
Rises 08:59:19 0° 258° (WSW) 4,710 11.2 46.5°
Reaches altitude 10° 09:02:21 10° 260° (W) 3,743 10.8 47.1°
Maximum altitude 09:11:53 76° 346° (NNW) 1,639 9.9 48.7°
Drops below altitude 10° 09:21:47 10° 73° (ENE) 3,870 11.7 50.4°
Sets 09:24:58 0° 75° (ENE) 4,877 12.1 50.9°
